CZ-6A DEB

Satellite information

Favourite Embed

Satellite Type and Status

DEBRISIN ORBIT

Key statistics

Satellite CZ-6A DEB at a glance.

Uptime

968

Days in orbit

Revolutions

≈ 14.3

Per day

Orbit

SSO

Sun Synchronous Orbit

Inclination

98.7

Latest

Satellite identification and parameters

Extended collection of information and parameters for CZ-6A DEB.

Object identification

Identified? True

Debris? True

Object name: CZ-6A DEB

International designator: 2022-151CU

Object number (NORAD): 54349

Object ID (CCSDS): 54349

Country: PEOPLES REPUBLIC OF CHINA (PRC)

Current information (Y/N): Y

RCS size: SMALL

Orbital parameters

Period: 100.842 minutes

Inclination: 98.6906 deg

SMA: 7176.631 km

Apoapsis: 877.444 km

Periapsis: 719.547 km

RAAN: 201.7491 deg

Eccentricy: 0.0110008

Argument of periapsis: 34.5253 deg

Mean anomaly: 326.301 deg

Mean motion: 14.27979164 rev/day

Mean motion (dot): 0.0000061 rev/day2

B* drag term: 0.00024725 1/REarth

Two-line elements (TLE)

Creation date: July 5, 2025, 5:45 p.m.

Reference frame: TEME

Reference center: EARTH

Epoch: July 5, 2025, 11:23 a.m. UTC

TLE line 0: 0 CZ-6A DEB

TLE line 1: 1 54349U 22151CU 25186.47460198 .00000610 00000-0 24725-3 0 9997

TLE line 2: 2 54349 98.6906 201.7491 0110008 34.5253 326.3010 14.27979164137221

Live tracking on map

Real-time ground track for satellite CZ-6A DEB.

In-orbit conjunctions

A list of the most updated potential collisions computed for object CZ-6A DEB.

Target Orbit TCA Probability of collision Miss distance Type
CZ-6A DEB LEO 2025-05-23 23:48:44 0.0001291656 389.0 (m) DEBRIS
SL-16 DEB LEO 2025-02-01 13:31:42 0.0002153642 358.0 (m) DEBRIS
NOAA 16 DEB SSO 2025-01-24 10:03:18 0.0001554349 79.0 (m) DEBRIS

Associated space launch

Chinese satellite reported for atmospheric/ocean/environmental/spatial parameter research purposes, details TBD.

CZ-6A DEB was lifted into orbit during the mission ‘Long March 6A | Yunhai 3’, on board a Long March 6A space rocket.

The launch took place on Nov. 11, 2022, 10:52 p.m. from Launch Complex 9A.

For more information about the launch, click the button.

Launch to space Long March 6A | Yunhai 3
Long March 6A | Yunhai 3

Agency: N/A

Status: Launch Successful

Launch date: Nov. 11, 2022, 10:52 p.m. UTC

Rocket: Long March 6A

Launch pad: Launch Complex 9A

Location: Taiyuan Satellite Launch Center, People's Republic of China

...

Latest news about this satellite

There are no fresh news available about this satellite. Check back as we update our databases every day.


Newsletter sign-up

Weekly statistics, charts and insights to help you stay on top of the space industry.